Content
SEND FEEDBACK

Daily
Averages
Monthly
Summary
United States of America

MAURICEVILLE, TEXAS


Home > North America > United States > Texas
Elevation: 20 feet     Latitude: 30 14N     Longitude: 093 44W

WEATHER
 
SELECT A DAY
Number of Records: 109,616;   Date Range: 8/25/05 - 8/29/14
 
SHARE

PRINT THIS DATA

[ ← Previous Day ]
WEATHER ALMANAC - FEBRUARY 10, 2013
[ Next Day → ]
[ °C ]   °F
Weather ElementAverageHighLow
Temperature65.6 °F71.6 °F (9:35 am)60.8 °F (2:55 pm)
Dewpoint64.7 °F69.8 °F (5:55 am)60.8 °F (1:55 pm)
Humidity97.2 %100 % (12:35 am)88 % (1:35 pm)
Barometer29.90 in29.98 in (8:55 pm)29.82 in (5:35 am)
Wind Speed8 mph18.4 mph (8:15 am)
Wind Gust29.9 mph (8:15 am)
Weather ElementAverage
Visibility7.8 mi
Wind DirectionSSE (141.1 °)

Weather ElementTotal
Precipitation0.08 in
Cooling Degree Days1.2 (Base 65)
Growing Degree Days16.2 (Base 50)
Averaged from 70 records on February 10, 2013
WEATHER CONDITIONS BREAKOUT
WIND DIRECTION BREAKOUT
WEATHER BY HOUR - FEBRUARY 10, 2013
[ °C ]   °F
Local TimeTemperatureDewpointHumidityBarometerVisibilityWind DirectionWind SpeedGust SpeedPrecipitationEventsConditions
12:35 AM64.4 °F64.4 °F100 %29.92 in7.0 miESE (120°)13.8 mph17.3 mphOvercast
12:55 AM64.4 °F64.4 °F100 %29.91 in7.0 miESE (120°)6.9 mphOvercast
1:15 AM64.4 °F64.4 °F100 %29.92 in7.0 miSE (130°)8.1 mphOvercast
1:35 AM64.4 °F64.4 °F100 %29.92 in7.0 miSE (130°)8.1 mphOvercast
1:55 AM66.2 °F64.4 °F94 %29.91 in7.0 miSE (130°)9.2 mphOvercast
2:35 AM66.2 °F66.2 °F100 %29.90 in7.0 miSE (130°)9.2 mphOvercast
2:55 AM66.2 °F66.2 °F100 %29.89 in5.0 miSE (140°)9.2 mphOvercast
3:15 AM66.2 °F66.2 °F100 %29.87 in5.0 miSE (130°)10.4 mphOvercast
3:35 AM66.2 °F66.2 °F100 %29.88 in5.0 miSSE (150°)10.4 mphOvercast
3:55 AM68.0 °F68.0 °F100 %29.88 in5.0 miSE (140°)10.4 mphOvercast
4:15 AM68.0 °F68.0 °F100 %29.84 in5.0 miSE (140°)9.2 mphOvercast
4:35 AM68.0 °F68.0 °F100 %29.87 in5.0 miSSE (160°)12.7 mph17.3 mphOvercast
4:55 AM68.0 °F68.0 °F100 %29.86 in5.0 miSSE (150°)10.4 mph16.1 mphOvercast
5:15 AM68.0 °F68.0 °F100 %29.85 in5.0 miSSE (150°)11.5 mphOvercast
5:35 AM68.0 °F68.0 °F100 %29.82 in5.0 miSE (140°)12.7 mph17.3 mphOvercast
5:55 AM69.8 °F69.8 °F100 %29.87 in7.0 miSouth (170°)11.5 mph17.3 mphOvercast
6:15 AM68.0 °F68.0 °F100 %29.85 in5.0 miSSE (150°)9.2 mphOvercast
6:35 AM68.0 °F68.0 °F100 %29.86 in5.0 miSouth (170°)8.1 mphOvercast
6:55 AM68.0 °F68.0 °F100 %29.86 in7.0 miSSE (160°)10.4 mphOvercast
7:15 AM69.8 °F68.0 °F94 %29.85 in7.0 miSouth (170°)13.8 mph18.4 mphOvercast
7:35 AM69.8 °F68.0 °F94 %29.86 in7.0 miSouth (170°)16.1 mph23.0 mphOvercast
7:55 AM68.0 °F68.0 °F100 %29.85 in5.0 miSouth (170°)15.0 mph21.9 mphMostly Cloudy
8:15 AM69.8 °F68.0 °F94 %29.86 in7.0 miSouth (170°)18.4 mph29.9 mphOvercast
8:35 AM69.8 °F68.0 °F94 %29.88 in7.0 miSouth (170°)16.1 mph25.3 mphOvercast
8:55 AM69.8 °F68.0 °F94 %29.87 in7.0 miSSE (160°)13.8 mph20.7 mphOvercast
9:15 AM69.8 °F69.8 °F100 %29.88 in7.0 miSouth (170°)15.0 mph24.2 mphOvercast
9:35 AM71.6 °F69.8 °F94 %29.88 in7.0 miSouth (170°)15.0 mph23.0 mphOvercast
9:55 AM69.8 °F69.8 °F100 %29.88 in7.0 miSouth (170°)15.0 mph23.0 mphOvercast
10:15 AM71.6 °F69.8 °F94 %29.89 in7.0 miSouth (180°)13.8 mph21.9 mphOvercast
10:35 AM71.6 °F69.8 °F94 %29.90 in7.0 miSouth (180°)13.8 mph21.9 mphOvercast
10:55 AM71.6 °F69.8 °F94 %29.90 in7.0 miSouth (180°)13.8 mph20.7 mphOvercast
11:15 AM71.6 °F69.8 °F94 %29.90 in10.0 miSouth (190°)16.1 mph23.0 mphOvercast
11:35 AM71.6 °F69.8 °F94 %29.90 in7.0 miSouth (180°)17.3 mph27.6 mphOvercast
11:55 AM71.6 °F69.8 °F94 %29.89 in7.0 miSouth (180°)17.3 mph23.0 mphOvercast
12:15 PM71.6 °F69.8 °F94 %29.89 in7.0 miSouth (190°)18.4 mph24.2 mphOvercast
12:35 PM71.6 °F69.8 °F94 %29.88 in7.0 miSouth (190°)17.3 mph25.3 mphOvercast
12:55 PM71.6 °F69.8 °F94 %29.88 in7.0 miSouth (190°)17.3 mph26.5 mphOvercast
1:15 PM71.6 °F69.8 °F94 %29.88 in7.0 miWSW (240°)10.4 mph23.0 mphOvercast
1:35 PM66.2 °F62.6 °F88 %29.87 in10.0 miWNW (300°)4.6 mphOvercast
1:55 PM62.6 °F60.8 °F94 %29.88 in10.0 miWNW (300°)8.1 mphOvercast
2:15 PM62.6 °F60.8 °F94 %29.87 in7.0 miNNW (330°)5.8 mphRainRain
2:35 PM62.6 °F60.8 °F94 %29.88 in5.0 miNNW (340°)5.8 mph0.01 inRainRain
2:55 PM60.8 °F60.8 °F100 %29.88 in5.0 miNW (320°)4.6 mph0.02 inRainRain
3:15 PM60.8 °F60.8 °F100 %29.88 in7.0 miNNW (340°)4.6 mph0.01 inRainRain
3:35 PM60.8 °F60.8 °F100 %29.89 in7.0 miNNW (340°)4.6 mph0.01 inRainRain
3:55 PM60.8 °F60.8 °F100 %29.89 in10.0 miCalm0.01 inRainLight Rain
4:15 PM60.8 °F60.8 °F100 %29.90 in10.0 miNNW (330°)3.5 mphRainRain
4:35 PM60.8 °F60.8 °F100 %29.90 in10.0 miCalm0.01 inOvercast
4:55 PM60.8 °F60.8 °F100 %29.90 in10.0 miCalm0.01 inOvercast
5:15 PM60.8 °F60.8 °F100 %29.90 in10.0 miNNE (30°)4.6 mphOvercast
5:35 PM60.8 °F60.8 °F100 %29.91 in10.0 miNNE (20°)3.5 mphOvercast
5:55 PM60.8 °F60.8 °F100 %29.91 in10.0 miNorth (350°)3.5 mphOvercast
6:15 PM60.8 °F60.8 °F100 %29.92 in10.0 miNNW (340°)3.5 mphOvercast
6:35 PM60.8 °F60.8 °F100 %29.93 in10.0 miCalmOvercast
6:55 PM60.8 °F60.8 °F100 %29.93 in10.0 miCalmOvercast
7:15 PM60.8 °F60.8 °F100 %29.92 in10.0 miCalmOvercast
7:35 PM60.8 °F60.8 °F100 %29.94 in10.0 miCalmOvercast
7:55 PM60.8 °F60.8 °F100 %29.95 in10.0 miCalmOvercast
8:15 PM60.8 °F60.8 °F100 %29.95 in10.0 miCalmOvercast
8:35 PM62.6 °F60.8 °F94 %29.97 in10.0 miCalmOvercast
8:55 PM62.6 °F60.8 °F94 %29.98 in10.0 miCalmOvercast
9:15 PM62.6 °F60.8 °F94 %29.97 in10.0 miCalmOvercast
9:35 PM62.6 °F60.8 °F94 %29.98 in10.0 miCalmOvercast
9:55 PM62.6 °F60.8 °F94 %29.96 in10.0 miNNE (20°)4.6 mphOvercast
10:15 PM62.6 °F60.8 °F94 %29.98 in10.0 miCalmOvercast
10:35 PM62.6 °F60.8 °F94 %29.98 in10.0 miCalmOvercast
10:55 PM62.6 °F60.8 °F94 %29.97 in10.0 miNorth (10°)4.6 mphOvercast
11:15 PM62.6 °F60.8 °F94 %29.98 in10.0 miCalmOvercast
11:35 PM62.6 °F60.8 °F94 %29.96 in10.0 miNNE (30°)4.6 mphOvercast
11:55 PM62.6 °F60.8 °F94 %29.98 in10.0 miNorth (350°)3.5 mphOvercast
Hourly data recorded from KORG, located miles away from Mauriceville, Texas







STORIES FROM OUR PARTNERS